EW3693 Weather Reports


time (UTC)temp
C
wind
direction
speed
KPH
gust
KPH
rain 1hr
cm
rain 24hr
cm
rain mn
cm
humidity
%
barometer
mb
20260506103025 11 45 4.8 16.1 0.00 0.00 0.00 79 1008.8
20260506102025 11 68 8.0 16.1 0.00 0.00 0.00 79 1008.7
20260506101025 11 68 8.0 17.7 0.00 0.00 0.00 79 1008.8
20260506100025 11 45 3.2 9.7 0.00 0.00 0.00 81 1008.7
20260506095025 11 45 3.2 14.5 0.00 0.05 0.00 80 1008.7
20260506094025 11 0 3.2 11.3 0.00 0.05 0.00 80 1008.6
20260506093025 10 68 3.2 14.5 0.00 0.05 0.00 79 1008.6
20260506092025 10 45 6.4 14.5 0.00 0.05 0.00 79 1008.6
20260506091025 10 68 6.4 19.3 0.00 0.05 0.00 79 1008.5
20260506090025 10 45 6.4 17.7 0.00 0.15 0.00 79 1008.5
20260506085025 10 68 4.8 16.1 0.00 0.15 0.00 79 1008.5
20260506084025 10 45 3.2 14.5 0.00 0.15 0.00 79 1008.5
20260506083025 10 45 6.4 22.5 0.00 0.15 0.00 79 1008.5
20260506082025 9 45 8.0 19.3 0.00 0.15 0.00 79 1008.4
20260506081025 9 45 6.4 16.1 0.00 0.15 0.00 79 1008.4
20260506073025 9 68 4.8 14.5 0.00 0.23 0.00 79 1008.3
20260506072025 8 68 8.0 17.7 0.00 0.23 0.00 79 1008.3
20260506071025 8 45 4.8 14.5 0.00 0.23 0.00 79 1008.3
20260506062025 8 45 8.0 17.7 0.00 0.28 0.00 79 1008.2
20260506061025 8 45 6.4 16.1 0.00 0.28 0.00 80 1008.3
20260506051025 7 45 8.0 22.5 0.00 0.43 0.00 79 1008.3
20260506045024 7 68 6.4 16.1 0.00 0.56 0.00 78 1008.4
20260506044025 7 45 4.8 19.3 0.00 0.56 0.00 77 1008.5
20260506043024 7 68 6.4 14.5 0.00 0.56 0.00 77 1008.5
20260506042024 7 68 6.4 16.1 0.00 0.56 0.00 77 1008.5
20260506041025 7 68 3.2 12.9 0.00 0.56 0.00 77 1008.5
20260506040044 7 68 4.8 14.5 0.00 0.56 0.00 77 1008.4
20260506035025 7 45 3.2 11.3 0.00 0.58 0.00 77 1008.4
20260506034025 7 45 8.0 17.7 0.00 0.58 0.00 76 1008.4
20260506033024 7 45 4.8 14.5 0.00 0.58 0.00 76 1008.4
20260506032045 7 45 6.4 14.5 0.00 0.58 0.00 76 1008.5
20260506031024 7 45 8.0 17.7 0.00 0.58 0.00 76 1008.6
20260506030024 7 45 6.4 14.5 0.00 0.58 0.00 76 1008.6
20260506025024 7 68 8.0 14.5 0.00 0.58 0.00 76 1008.6
20260506024024 7 68 6.4 14.5 0.00 0.58 0.00 77 1008.8
20260506023024 7 68 6.4 16.1 0.00 0.58 0.00 78 1008.8
20260506022025 7 68 3.2 9.7 0.00 0.58 0.00 79 1009.0
20260506021024 7 45 4.8 16.1 0.00 0.58 0.00 79 1009.1
20260506020024 7 68 4.8 9.7 0.00 0.58 0.00 80 1009.2
20260506015024 7 45 4.8 16.1 0.00 0.58 0.00 79 1009.3
20260506014024 7 23 4.8 14.5 0.00 0.58 0.00 80 1009.3
20260506013024 7 45 4.8 9.7 0.00 0.58 0.00 80 1009.2
20260506012024 7 45 3.2 11.3 0.00 0.58 0.00 80 1009.1
20260506011024 7 0.0 0.0 0.00 0.58 0.00 80 1009.3
20260506010024 7 0.0 0.0 0.00 0.58 0.00 80 1009.5
20260506005024 7 0.0 0.0 0.00 0.58 0.00 80 1009.6
20260506004024 7 0.0 4.8 0.00 0.58 0.00 80 1009.6
20260506003024 7 68 1.6 9.7 0.00 0.58 0.00 80 1009.6
20260506002024 7 45 3.2 11.3 0.00 0.58 0.00 80 1009.7
20260506001024 7 45 4.8 14.5 0.00 0.58 0.00 80 1009.9
20260506000024 7 68 3.2 12.9 0.00 0.58 0.00 81 1010.0
20260505235024 7 68 3.2 9.7 0.00 0.58 0.00 82 1010.0
20260505234024 7 68 3.2 8.0 0.00 0.58 0.00 83 1009.9
20260505233024 7 68 4.8 17.7 0.00 0.58 0.00 85 1009.8
20260505232024 7 45 4.8 14.5 0.00 0.58 0.00 87 1009.9
20260505231024 6 45 6.4 14.5 0.00 0.58 0.00 89 1010.0
20260505230024 6 68 9.7 17.7 0.00 0.58 0.00 91 1009.9
20260505225024 6 23 1.6 6.4 0.00 0.58 0.00 92 1010.1
20260505224024 6 45 1.6 6.4 0.00 0.58 0.00 92 1010.1
20260505223024 6 45 1.6 6.4 0.00 0.58 0.00 92 1010.3
20260505222104 6 45 3.2 8.0 0.00 0.58 0.00 92 1010.3
20260505221023 6 45 1.6 11.3 0.00 0.58 0.00 93 1010.4
20260505220024 6 45 3.2 9.7 0.00 0.58 0.58 93 1010.5
20260505215024 7 45 3.2 8.0 0.00 0.58 0.58 93 1010.4
20260505214024 7 45 1.6 4.8 0.00 0.58 0.58 93 1010.6
20260505213023 7 45 1.6 4.8 0.00 0.58 0.58 93 1010.7
20260505212043 7 0.0 4.8 0.00 0.58 0.58 93 1010.6
20260505211023 7 0.0 3.2 0.00 0.58 0.58 93 1010.6
20260505210104 7 0.0 3.2 0.00 0.58 0.58 93 1010.6
20260505205023 7 0.0 3.2 0.00 0.58 0.58 93 1010.6
20260505204024 8 0.0 1.6 0.00 0.58 0.58 92 1010.6
20260505203024 8 0.0 1.6 0.00 0.58 0.58 92 1010.6
20260505202025 8 0.0 0.0 0.00 0.58 0.58 91 1010.4
20260505201025 8 0.0 1.6 0.00 0.58 0.58 91 1010.3
20260505200024 8 0.0 0.0 0.00 0.58 0.58 91 1010.2
20260505195024 8 0.0 1.6 0.00 0.58 0.58 91 1010.2
20260505194024 9 68 1.6 4.8 0.00 0.58 0.58 90 1010.2
20260505193044 9 0.0 0.0 0.00 0.58 0.58 90 1010.2
20260505192024 10 45 1.6 4.8 0.00 0.58 0.58 89 1010.2
20260505191024 10 45 1.6 6.4 0.00 0.58 0.58 89 1010.2
20260505190024 10 45 1.6 6.4 0.00 0.58 0.58 88 1010.2
20260505185024 10 45 1.6 6.4 0.00 0.58 0.58 88 1010.3
20260505184024 11 45 1.6 8.0 0.00 0.58 0.58 88 1010.2
20260505183044 11 68 3.2 8.0 0.00 0.58 0.58 88 1010.3
20260505182024 11 68 3.2 11.3 0.00 0.58 0.58 88 1010.3
20260505181024 11 45 1.6 6.4 0.00 0.58 0.58 87 1010.4
20260505180024 11 68 3.2 9.7 0.00 0.58 0.58 87 1010.4
20260505175025 11 68 4.8 12.9 0.00 0.58 0.58 87 1010.4
20260505174024 11 45 3.2 9.7 0.00 0.58 0.58 87 1010.4
20260505173024 11 68 4.8 12.9 0.00 0.58 0.58 87 1010.5
20260505172024 11 68 3.2 12.9 0.00 0.58 0.58 87 1010.5
20260505171024 11 90 6.4 14.5 0.00 0.58 0.58 87 1010.6
20260505170044 11 0.0 0.0 0.00 0.58 0.58 87 1010.6
20260505165024 11 68 4.8 16.1 0.00 0.58 0.58 87 1010.5
20260505164044 11 45 1.6 11.3 0.00 0.58 0.58 87 1010.7
20260505163024 11 45 4.8 16.1 0.00 0.58 0.58 87 1010.6
20260505162024 11 45 4.8 12.9 0.00 0.58 0.58 88 1010.7
20260505161024 11 68 1.6 9.7 0.00 0.58 0.58 88 1010.8
20260505153044 11 45 1.6 8.0 0.00 0.58 0.58 88 1011.0
20260505152044 11 0.0 4.8 0.00 0.58 0.58 88 1011.0
20260505151024 11 45 1.6 6.4 0.00 0.58 0.58 87 1011.1
20260505125024 11 45 6.4 14.5 0.00 0.58 0.58 92 1011.5
20260505124024 11 68 9.7 17.7 0.00 0.58 0.58 92 1011.6
20260505123024 11 68 6.4 17.7 0.00 0.58 0.58 92 1011.4
20260505122023 11 45 6.4 14.5 0.00 0.58 0.58 93 1011.5
20260505121023 11 68 8.0 16.1 0.00 0.58 0.58 94 1011.6
20260505120024 10 45 4.8 16.1 0.00 0.58 0.58 94 1011.6
20260505115044 10 45 4.8 16.1 0.00 0.58 0.58 94 1011.5
20260505114024 10 68 3.2 9.7 0.00 0.58 0.58 95 1011.6
20260505113025 10 45 4.8 11.3 0.00 0.58 0.58 95 1011.7
20260505112025 10 23 4.8 14.5 0.00 0.58 0.58 95 1011.7
20260505111025 10 45 3.2 8.0 0.00 0.58 0.58 96 1011.7